[Iaude] MPEC T118: 2016 TZ19 [a=0.95,e=0.58,i=5.3,H=23.3]

mpec at si.edu mpec at si.edu
Tue Oct 11 18:53:55 EDT 2016


M.P.E.C. 2016-T118                               Issued 2016 Oct. 11, 22:48 UT
 
     The Minor Planet Electronic Circulars contain information on unusual
         minor planets and routine data on comets.  They are published
    on behalf of Division F of the International Astronomical Union by the
          Minor Planet Center, Smithsonian Astrophysical Observatory,
                          Cambridge, MA 02138, U.S.A.

             Prepared using the Tamkin Foundation Computer Network

                              MPC at CFA.HARVARD.EDU
            URL http://www.minorplanetcenter.net/    ISSN 1523-6714


                                   2016 TZ19
 
Observations:
     K16T19Z* C2016 10 08.40077 02 29 20.061+28 44 20.59         21.5 wLET118F51
     K16T19Z  C2016 10 08.41203 02 29 18.192+28 44 26.38         21.4 wLET118F51
     K16T19Z  C2016 10 08.43478 02 29 14.414+28 44 38.14         21.5 wLET118F51
     K16T19Z KC2016 10 09.05252 02 27 36.87 +28 49 08.9          21.0 RqET118104
     K16T19Z KC2016 10 09.05804 02 27 35.91 +28 49 11.4          20.7 RqET118104
     K16T19Z KC2016 10 09.06356 02 27 34.96 +28 49 13.9          20.6 RqET118104
     K16T19Z _C2016 10 09.55221702 26 12.871+28 53 15.67         21.1 RUET118568
     K16T19Z _C2016 10 09.55325502 26 12.674+28 53 16.09         21.1 RUET118568
     K16T19Z _C2016 10 09.55431202 26 12.475+28 53 16.52         20.8 RUET118568
     K16T19Z  C2016 10 10.43315 02 23 33.40 +28 59 47.1          20.8 RoET118926
     K16T19Z  C2016 10 10.44098 02 23 31.77 +28 59 49.8          20.7 RoET118926
     K16T19Z  C2016 10 10.45168 02 23 29.56 +28 59 54.4          20.8 RoET118926
     K16T19Z  C2016 10 11.43766 02 20 09.08 +29 07 11.2          20.6 RoET118926
     K16T19Z  C2016 10 11.44752 02 20 06.83 +29 07 15.1          20.4 RoET118926
     K16T19Z  C2016 10 11.45789 02 20 04.42 +29 07 18.4          20.5 RoET118926
 
Observer details:
104 San Marcello Pistoiese.  Observers P. Bacci, M. Maestripieri.  Measurers
    P. Bacci, L. Tesi, G. Fagioli.  0.60-m f/4 reflector + CCD.
568 Mauna Kea.  Observers R. J. Wainscoat, R. Weryk, C. Wipper.  Measurers
    M. Micheli, R. Weryk.  3.6-m Canada-France-Hawaii Telescope + CCD.
926 Tenagra II Observatory.  Observers M. Schwartz, P. R. Holvorcem.  Measurer
    M. Schwartz.  0.81-m f/7 Ritchey-Chretien + CCD.
F51 Pan-STARRS 1, Haleakala.  Observers B. Gibson, T. Goggia, S. Kahale,
    A. Schultz, M. Willman.  Measurers K. Chambers, S. Chastel, L. Denneau,
    H. Flewelling, M. Huber, E. Lilly, E. Magnier, R. Wainscoat, C. Waters,
    R. Weryk.  1.8-m Ritchey-Chretien + CCD.
 
Orbital elements:
2016 TZ19                                                Earth MOID = 0.0186 AU
Epoch 2016 July 31.0 TT = JDT 2457600.5                 MPC
M 199.70897              (2000.0)            P               Q
n   1.07230418     Peri.  297.60870     -0.95925405     -0.27462263
a   0.9453458      Node   226.53590     +0.28058317     -0.89822206
e   0.5795856      Incl.    5.25207     +0.03323776     -0.34319024
P   0.92           H   23.3           G   0.15           U   9
Residuals in seconds of arc
161008 F51  0.0   0.1+    161009 104  0.0   0.1+    161010 926  0.1+  0.2-
161008 F51  0.1-  0.1-    161009 568  0.0   0.1-    161010 926  0.2+  0.3+
161008 F51  0.1+  0.0     161009 568  0.0   0.1-    161011 926  0.5-  0.1-
161009 104  0.5-  0.1-    161009 568  0.0   0.1-    161011 926  0.1+  0.2+
161009 104  0.3-  0.0     161010 926  0.2+  0.2+    161011 926  0.1+  0.2-

Ephemeris:
2016 TZ19                a,e,i = 0.95, 0.58, 5                   q = 0.3974
Date    TT    R. A. (2000) Decl.     Delta      r     Elong.  Phase     V
2016 09 11    02 42 17.9 +25 04 58   0.5114  1.3502   122.2    39.1    24.1
...
2016 09 26    02 44 34.5 +27 05 30   0.3415  1.2676   135.1    33.9    22.9
...
2016 10 04    02 37 46.5 +28 09 29   0.2558  1.2151   143.3    29.5    22.0
...
2016 10 10    02 24 55.5 +28 56 35   0.1946  1.1717   150.4    24.9    21.2
2016 10 11    02 21 43.0 +29 04 04   0.1847  1.1641   151.6    24.1    21.1
2016 10 12    02 18 05.2 +29 11 18   0.1749  1.1564   152.9    23.2    20.9
...
2016 10 18    01 42 38.2 +29 39 23   0.1184  1.1082   159.8    18.1    19.8
...
2016 10 26    23 14 55.8 +23 40 40   0.05735 1.0380   138.8    39.1    18.7
...
2016 11 10    17 08 53.3 -21 05 42   0.1215  0.8875    30.3   145.7    26.1

A. U. Tomatic                (C) Copyright 2016 MPC           M.P.E.C. 2016-T118




More information about the Iaude mailing list